EW5790 Weather Reports


time (UTC)temp
C
wind
direction
speed
KPH
gust
KPH
rain 1hr
cm
rain 24hr
cm
rain mn
cm
humidity
%
barometer
mb
20260906021544 22 100 0.0 0.0 0.05 0.89 0.89 1 1011.2
20260906020039 22 100 0.0 0.0 0.03 0.86 0.86 1 1010.7
20260906014536 22 100 0.0 0.0 0.05 0.86 0.86 1 1010.6
20260906013030 22 100 0.0 0.0 0.08 0.86 0.86 1 1010.8
20260906011533 22 100 0.0 0.0 0.08 0.84 0.84 1 1010.8
20260906010021 22 100 0.0 0.0 0.10 0.84 0.84 1 1010.6
20260906004516 22 100 0.0 0.0 0.13 0.81 0.81 1 1010.5
20260906003013 22 100 0.0 0.0 0.15 0.79 0.79 1 1010.7
20260906001509 22 100 0.0 0.0 0.18 0.76 0.76 1 1011.0
20260906000004 22 100 0.0 0.0 0.23 0.71 0.71 1 1010.9
20260905234559 22 120 0.0 0.0 0.25 0.69 0.69 1 1011.0
20260905233055 22 349 0.0 0.0 0.30 0.64 0.64 1 1010.9
20260905231550 22 355 0.0 0.0 0.38 0.58 0.58 1 1010.7
20260905230051 22 306 0.0 0.0 0.48 0.51 0.51 6 1011.3
20260905224559 22 90 0.0 0.0 0.43 0.43 0.43 11 1011.2
20260905223037 22 134 0.0 0.0 0.33 0.33 0.33 13 1011.0
20260905221537 25 133 0.0 1.6 0.20 0.20 0.20 49 1011.4
20260905220027 31 273 0.0 0.0 0.03 0.03 0.03 62 1010.7
20260905214523 35 230 0.0 0.0 0.00 0.13 0.00 49 1010.1
20260905213018 35 165 0.0 0.0 0.00 0.13 0.00 50 1009.9
20260905211515 35 275 0.0 0.0 0.00 0.13 0.00 49 1010.0
20260905210010 35 332 0.0 0.0 0.00 0.13 0.00 49 1010.2
20260905204507 35 276 0.0 0.0 0.00 0.25 0.00 50 1010.2
20260905203002 35 297 0.0 0.0 0.00 0.25 0.00 50 1010.5
20260905201600 35 269 0.0 0.0 0.00 0.25 0.00 50 1010.7
20260905200058 35 347 0.0 0.0 0.00 0.25 0.00 49 1010.9
20260905194548 35 332 0.0 0.0 0.00 0.25 0.00 50 1011.2
20260905193043 34 288 0.0 0.0 0.00 0.25 0.00 51 1011.3
20260905191539 34 46 0.0 0.0 0.00 0.25 0.00 51 1011.5
20260905190035 34 298 0.0 0.0 0.00 0.25 0.00 53 1011.8
20260905184533 33 172 0.0 0.0 0.00 0.28 0.00 54 1012.1
20260905183026 33 280 0.0 0.0 0.00 0.28 0.00 55 1012.1
20260905181522 33 263 0.0 0.0 0.00 0.28 0.00 54 1012.5
20260905180017 32 88 0.0 0.0 0.00 0.28 0.00 56 1012.7
20260905174512 32 275 0.0 0.0 0.00 0.28 0.00 59 1012.8
20260905173011 32 119 0.0 0.0 0.00 0.28 0.00 58 1013.0
20260905171503 31 121 0.0 0.0 0.00 0.28 0.00 59 1013.2
20260905170105 31 133 0.0 0.0 0.00 0.28 0.00 59 1013.3
20260905170002 31 133 0.0 0.0 0.00 0.28 0.00 59 1013.3
20260905164555 31 58 0.0 0.0 0.00 0.28 0.00 61 1013.4
20260905163050 30 117 0.0 0.0 0.00 0.28 0.00 62 1013.5
20260905161546 30 134 0.0 0.0 0.00 0.28 0.00 62 1013.5
20260905160109 29 126 0.0 0.0 0.00 0.28 0.00 62 1013.6
20260905154540 29 69 0.0 0.0 0.00 0.28 0.00 63 1013.8
20260905153032 28 74 0.0 0.0 0.00 0.28 0.00 63 1014.2
20260905151534 28 148 0.0 0.0 0.00 0.28 0.00 63 1014.2
20260905150025 27 141 0.0 0.0 0.00 0.28 0.00 61 1014.4
20260905144520 27 143 0.0 0.0 0.00 0.28 0.00 56 1014.4
20260905143017 27 21 0.0 0.0 0.00 0.28 0.00 49 1014.6
20260905141513 26 124 0.0 0.0 0.00 0.28 0.00 12 1014.3
20260905140007 26 296 0.0 0.0 0.00 0.28 0.00 1 1014.4
20260905134503 25 140 0.0 0.0 0.00 0.28 0.00 1 1013.8
20260905133058 24 140 0.0 0.0 0.00 0.28 0.00 1 1013.8
20260905131600 23 113 0.0 0.0 0.00 0.28 0.00 1 1013.9
20260905130049 22 113 0.0 0.0 0.00 0.28 0.00 1 1014.2
20260905124545 22 113 0.0 0.0 0.00 0.28 0.00 1 1014.2
20260905123040 22 113 0.0 0.0 0.00 0.28 0.00 1 1014.0
20260905121537 22 113 0.0 0.0 0.00 0.28 0.00 1 1013.7
20260905120033 22 113 0.0 0.0 0.00 0.28 0.00 1 1013.7
20260905114529 21 113 0.0 0.0 0.00 0.28 0.00 1 1013.4
20260905113024 21 113 0.0 0.0 0.00 0.28 0.00 1 1013.3
20260905111622 21 113 0.0 0.0 0.00 0.28 0.00 1 1013.3
20260905110016 21 113 0.0 0.0 0.00 0.28 0.00 1 1013.1
20260905104511 21 113 0.0 0.0 0.00 0.28 0.00 1 1013.1
20260905103017 21 113 0.0 0.0 0.00 0.28 0.00 1 1013.0
20260905101503 21 113 0.0 0.0 0.00 0.28 0.00 1 1013.0
20260905100059 21 113 0.0 0.0 0.00 0.28 0.00 1 1013.0
20260905094554 21 113 0.0 0.0 0.00 0.28 0.00 1 1012.7
20260905093049 21 113 0.0 0.0 0.00 0.28 0.00 1 1012.6
20260905091614 21 113 0.0 0.0 0.00 0.28 0.00 1 1012.5
20260905090041 21 113 0.0 0.0 0.00 0.28 0.00 1 1012.6
20260905084536 22 113 0.0 0.0 0.00 0.28 0.00 1 1012.4
20260905083031 22 113 0.0 0.0 0.00 0.28 0.00 1 1012.2
20260905081528 22 113 0.0 0.0 0.00 0.28 0.00 1 1012.4
20260905080027 22 113 0.0 0.0 0.00 0.28 0.00 1 1012.5
20260905074519 22 113 0.0 0.0 0.00 0.28 0.00 1 1012.6
20260905073014 22 113 0.0 0.0 0.00 0.28 0.00 1 1012.8
20260905071510 22 113 0.0 0.0 0.00 0.28 0.00 1 1013.0
20260905070005 22 113 0.0 0.0 0.00 0.28 0.00 1 1013.2
20260905064502 22 113 0.0 0.0 0.00 0.28 0.00 1 1013.3
20260905063058 22 113 0.0 0.0 0.00 0.28 0.00 1 1013.5
20260905061618 22 113 0.0 0.0 0.00 0.28 0.00 1 1013.6
20260905060051 22 113 0.0 0.0 0.00 0.28 0.00 1 1013.6
20260905054543 22 113 0.0 0.0 0.00 0.28 0.00 1 1013.8
20260905053042 23 113 0.0 0.0 0.00 0.28 0.00 1 1013.9
20260905051539 23 113 0.0 0.0 0.00 0.28 0.00 1 1013.9
20260905050035 23 113 0.0 0.0 0.00 0.28 0.00 1 1013.9
20260905044533 23 113 0.0 0.0 0.00 0.28 0.00 1 1013.8
20260905043026 23 113 0.0 0.0 0.00 0.28 0.00 1 1013.8
20260905041518 23 113 0.0 0.0 0.00 0.28 0.00 1 1013.9
20260905040013 23 113 0.0 0.0 0.00 0.28 0.00 1 1013.9
20260905034509 23 113 0.0 0.0 0.00 0.28 0.28 1 1013.8
20260905033005 23 113 0.0 0.0 0.00 0.28 0.28 1 1013.9
20260905031506 24 113 0.0 0.0 0.00 0.28 0.28 1 1013.9
20260905030056 24 113 0.0 0.0 0.00 0.28 0.28 1 1013.9
20260905024552 24 113 0.0 0.0 0.00 0.28 0.28 1 1014.0
20260905023047 24 113 0.0 0.0 0.00 0.28 0.28 1 1013.8